When you browse on this site, cookies collect data to enhance your experience and personalize the content and advertising you see.
Visit our Privacy Policy to learn more. By continuing to use the site, you agree to this use of cookies and data.
  • In Latvia
  • List of Countries
  • For 7 days
  • Water Temperature
  • Weather Map
  • Weather Widgets
  • user-avatar
    Login

    Hourly Weather Bangalore

    Today, 1 April, Wednesday

    Time Temperature Precipitation Wind Pressure Humidity
    00:00 +26°C° 0 mm 3 mps 684 mmHg 41%
    01:00 +25°C° 0 mm 3 mps 684 mmHg 44%
    02:00 +25°C° 0 mm 3 mps 683 mmHg 46%
    03:00 +24°C° 0 mm 2 mps 683 mmHg 46%
    04:00 +24°C° 0 mm 2 mps 683 mmHg 47%
    05:00 +22°C° 0 mm 3 mps 684 mmHg 45%
    06:00 +25°C° 0 mm 3 mps 684 mmHg 39%
    07:00 +27°C° 0 mm 3 mps 685 mmHg 34%
    08:00 +29°C° 0 mm 3 mps 685 mmHg 29%
    09:00 +32°C° 0 mm 4 mps 686 mmHg 25%
    10:00 +34°C° 0 mm 5 mps 686 mmHg 21%
    11:00 +36°C° 0 mm 5 mps 686 mmHg 18%
    12:00 +37°C° 0 mm 5 mps 686 mmHg 17%
    13:00 +37°C° 0 mm 5 mps 685 mmHg 15%
    14:00 +39°C° 0 mm 5 mps 684 mmHg 14%
    15:00 +39°C° 0 mm 5 mps 683 mmHg 14%
    16:00 +37°C° 0 mm 5 mps 683 mmHg 15%
    17:00 +36°C° 0 mm 5 mps 683 mmHg 16%
    18:00 +35°C° 0 mm 4 mps 683 mmHg 19%
    19:00 +33°C° 0 mm 4 mps 683 mmHg 23%
    20:00 +30°C° 0 mm 3 mps 683 mmHg 26%
    21:00 +29°C° 0 mm 4 mps 684 mmHg 32%
    22:00 +28°C° 0 mm 4 mps 684 mmHg 37%
    23:00 +27°C° 0 mm 5 mps 684 mmHg 43%

    Tomorrow, 2 April, Thursday

    Time Temperature Precipitation Wind Pressure Humidity
    00:00 +26°C° 0 mm 4 mps 684 mmHg 45%
    01:00 +26°C° 0 mm 3 mps 683 mmHg 46%
    02:00 +25°C° 0 mm 3 mps 682 mmHg 48%
    03:00 +24°C° 0 mm 2 mps 682 mmHg 49%
    04:00 +24°C° 0 mm 2 mps 682 mmHg 49%
    05:00 +23°C° 0 mm 2 mps 682 mmHg 50%
    06:00 +25°C° 0 mm 2 mps 683 mmHg 47%
    07:00 +27°C° 0 mm 2 mps 684 mmHg 43%
    08:00 +28°C° 0 mm 2 mps 684 mmHg 40%
    09:00 +30°C° 0 mm 3 mps 685 mmHg 34%
    10:00 +33°C° 0 mm 3 mps 685 mmHg 29%
    11:00 +36°C° 0 mm 3 mps 685 mmHg 23%
    12:00 +36°C° 0 mm 4 mps 684 mmHg 21%
    13:00 +37°C° 0 mm 4 mps 683 mmHg 20%
    14:00 +38°C° 0 mm 4 mps 683 mmHg 18%
    15:00 +38°C° 0 mm 4 mps 682 mmHg 19%
    16:00 +37°C° 0 mm 5 mps 682 mmHg 20%
    17:00 +36°C° 0 mm 5 mps 682 mmHg 20%
    18:00 +35°C° 0 mm 5 mps 682 mmHg 23%
    19:00 +33°C° 0 mm 4 mps 683 mmHg 26%
    20:00 +32°C° 0 mm 4 mps 684 mmHg 28%
    21:00 +30°C° 0 mm 4 mps 684 mmHg 33%
    22:00 +29°C° 0 mm 4 mps 684 mmHg 39%
    23:00 +28°C° 0 mm 4 mps 684 mmHg 44%

    Day after tomorrow, 3 April, Friday

    Time Temperature Precipitation Wind Pressure Humidity
    00:00 +27°C° 0 mm 4 mps 683 mmHg 46%
    01:00 +26°C° 0 mm 3 mps 683 mmHg 49%
    02:00 +25°C° 0 mm 2 mps 682 mmHg 52%
    03:00 +25°C° 0 mm 2 mps 682 mmHg 54%
    04:00 +24°C° 0 mm 1 mps 682 mmHg 57%
    05:00 +24°C° 0 mm 1 mps 682 mmHg 60%
    06:00 +25°C° 0 mm 1 mps 683 mmHg 58%
    07:00 +27°C° 0 mm 2 mps 684 mmHg 56%
    08:00 +28°C° 0 mm 2 mps 685 mmHg 53%
    09:00 +30°C° 0 mm 3 mps 685 mmHg 43%
    10:00 +33°C° 0 mm 3 mps 685 mmHg 32%
    11:00 +36°C° 0 mm 4 mps 685 mmHg 21%
    12:00 +36°C° 0 mm 4 mps 684 mmHg 19%
    13:00 +37°C° 0 mm 4 mps 684 mmHg 18%
    14:00 +39°C° 0 mm 5 mps 683 mmHg 16%
    15:00 +39°C° 0 mm 5 mps 683 mmHg 17%
    16:00 +37°C° 0 mm 5 mps 683 mmHg 17%
    17:00 +38°C° 0 mm 6 mps 682 mmHg 17%
    18:00 +35°C° 0 mm 5 mps 683 mmHg 21%
    19:00 +33°C° 0 mm 5 mps 683 mmHg 25%
    20:00 +30°C° 0 mm 5 mps 684 mmHg 29%
    21:00 +29°C° 0 mm 4 mps 684 mmHg 33%
    22:00 +28°C° 0 mm 4 mps 684 mmHg 36%
    23:00 +27°C° 0 mm 4 mps 684 mmHg 40%

    4 April, Saturday

    Time Temperature Precipitation Wind Pressure Humidity
    00:00 +27°C° 0 mm 4 mps 684 mmHg 44%
    01:00 +26°C° 0 mm 4 mps 683 mmHg 49%
    02:00 +25°C° 0 mm 3 mps 682 mmHg 53%
    03:00 +24°C° 0 mm 3 mps 683 mmHg 57%
    04:00 +23°C° 0 mm 2 mps 683 mmHg 61%
    05:00 +21°C° 0 mm 2 mps 683 mmHg 64%
    06:00 +24°C° 0 mm 2 mps 683 mmHg 57%
    07:00 +26°C° 0 mm 2 mps 684 mmHg 50%
    08:00 +27°C° 0 mm 2 mps 685 mmHg 43%
    09:00 +30°C° 0 mm 3 mps 685 mmHg 34%
    10:00 +34°C° 0 mm 4 mps 686 mmHg 25%
    11:00 +36°C° 0 mm 5 mps 686 mmHg 16%
    12:00 +37°C° 0 mm 5 mps 685 mmHg 15%
    13:00 +39°C° 0 mm 6 mps 684 mmHg 14%
    14:00 +39°C° 0 mm 6 mps 683 mmHg 14%
    15:00 +39°C° 0 mm 6 mps 683 mmHg 14%
    16:00 +38°C° 0 mm 6 mps 683 mmHg 15%
    17:00 +36°C° 0 mm 6 mps 683 mmHg 16%
    18:00 +34°C° 0 mm 5 mps 683 mmHg 19%
    19:00 +32°C° 0 mm 5 mps 684 mmHg 21%
    20:00 +30°C° 0 mm 4 mps 684 mmHg 24%
    21:00 +29°C° 0 mm 4 mps 684 mmHg 27%
    22:00 +28°C° 0 mm 3 mps 684 mmHg 30%
    23:00 +27°C° 0 mm 3 mps 685 mmHg 33%

    5 April, Sunday

    Time Temperature Precipitation Wind Pressure Humidity
    00:00 +26°C° 0 mm 3 mps 684 mmHg 39%
    01:00 +25°C° 0 mm 3 mps 683 mmHg 45%
    02:00 +24°C° 0 mm 2 mps 683 mmHg 51%
    03:00 +23°C° 0 mm 2 mps 683 mmHg 57%
    04:00 +21°C° 0 mm 2 mps 683 mmHg 62%
    05:00 +22°C° 0 mm 1 mps 683 mmHg 68%
    06:00 +23°C° 0 mm 2 mps 684 mmHg 64%
    07:00 +25°C° 0 mm 2 mps 685 mmHg 59%
    08:00 +27°C° 0 mm 2 mps 686 mmHg 55%
    09:00 +29°C° 0 mm 2 mps 686 mmHg 43%
    10:00 +33°C° 0 mm 3 mps 686 mmHg 31%
    11:00 +35°C° 0 mm 3 mps 686 mmHg 18%
    12:00 +36°C° 0 mm 3 mps 685 mmHg 16%
    13:00 +37°C° 0 mm 4 mps 685 mmHg 15%
    14:00 +38°C° 0 mm 4 mps 684 mmHg 13%
    15:00 +38°C° 0 mm 4 mps 684 mmHg 13%
    16:00 +38°C° 0 mm 4 mps 683 mmHg 12%
    17:00 +37°C° 0 mm 4 mps 683 mmHg 12%
    18:00 +35°C° 0 mm 4 mps 683 mmHg 16%
    19:00 +33°C° 0 mm 4 mps 684 mmHg 21%
    20:00 +30°C° 0 mm 4 mps 684 mmHg 25%
    21:00 +29°C° 0 mm 4 mps 685 mmHg 36%
    22:00 +28°C° 0 mm 4 mps 685 mmHg 47%
    23:00 +27°C° 0 mm 3 mps 685 mmHg 58%

    6 April, Monday

    Time Temperature Precipitation Wind Pressure Humidity
    00:00 +26°C° 0 mm 3 mps 684 mmHg 61%
    01:00 +25°C° 0 mm 3 mps 684 mmHg 64%
    02:00 +24°C° 0 mm 2 mps 683 mmHg 66%
    03:00 +24°C° 0 mm 2 mps 683 mmHg 71%
    04:00 +23°C° 0 mm 2 mps 683 mmHg 76%
    05:00 +23°C° 0 mm 2 mps 683 mmHg 81%
    06:00 +24°C° 0 mm 2 mps 684 mmHg 75%
    07:00 +26°C° 0 mm 2 mps 685 mmHg 68%
    08:00 +28°C° 0 mm 2 mps 686 mmHg 61%
    09:00 +30°C° 0 mm 2 mps 686 mmHg 50%
    10:00 +32°C° 0 mm 2 mps 686 mmHg 38%
    11:00 +36°C° 0 mm 2 mps 686 mmHg 27%
    12:00 +37°C° 0 mm 3 mps 685 mmHg 23%
    13:00 +38°C° 0 mm 3 mps 684 mmHg 20%
    14:00 +39°C° 0 mm 3 mps 683 mmHg 17%
    15:00 +38°C° 0 mm 3 mps 683 mmHg 18%
    16:00 +37°C° 0 mm 3 mps 683 mmHg 19%
    17:00 +37°C° 0 mm 3 mps 682 mmHg 20%
    18:00 +36°C° 0 mm 3 mps 683 mmHg 23%
    19:00 +34°C° 0 mm 4 mps 683 mmHg 27%
    20:00 +33°C° 0 mm 4 mps 684 mmHg 31%
    21:00 +32°C° 0 mm 4 mps 684 mmHg 35%
    22:00 +32°C° 0 mm 4 mps 684 mmHg 39%
    23:00 +30°C° 0 mm 3 mps 684 mmHg 43%
    Show more